Temperature
10 10 10 10 10 9 9 9 9 9 9 9 9 9 9 9 9 8 8 9 8 8 7 7 7 7 7 7 6 6 6 6 6 6 6 6 5 5 5 5 5 5 5
10 10 10 10 10 9 9 9 9 9 9 9 9 9 9 9 9 8 8 8 8 8 8 7 7 7 7 6 6 6 6 6 6 6 6 5 5 5 5 5 5 5 5
10 10 10 10 10 9 9 9 9 9 9 9 9 9 9 9 9 8 8 8 8 8 8 8 7 7 7 7 6 6 6 6 5 5 5 5 5 4 4 4 4 4 4
11 10 10 10 10 10 9 9 9 9 9 9 9 9 9 9 9 9 8 8 8 8 7 8 7 7 7 7 6 6 6 5 5 5 5 4 4 4 4 4 4 4 4
11 10 10 10 10 10 9 9 9 9 9 9 9 9 9 9 9 9 8 8 8 8 7 7 7 7 7 7 7 6 6 5 5 5 4 4 4 4 4 4 4 4 4
11 10 10 10 10 10 9 9 9 9 9 9 9 9 9 9 9 9 8 8 8 8 7 7 7 7 7 7 7 6 6 5 5 4 4 4 4 3 3 3 3 3 3
11 10 10 10 10 9 9 9 9 9 9 9 9 9 9 9 9 9 8 8 8 8 7 7 7 7 7 7 7 6 6 5 5 4 4 3 3 3 3 3 3 3 3
11 10 10 10 10 10 9 9 9 9 9 9 9 8 8 8 9 9 8 8 8 7 7 7 7 7 6 6 6 6 6 5 5 4 3 3 3 3 2 2 2 2 2
11 11 10 10 10 10 9 9 9 9 9 9 9 9 8 9 8 8 9 8 8 7 7 7 7 6 6 6 6 6 5 5 5 4 3 3 2 2 2 2 2 2 2
11 11 11 10 10 10 9 9 9 9 9 9 9 9 9 8 8 8 8 8 8 7 7 7 6 6 6 5 5 5 5 5 4 4 3 3 2 2 2 1 1 1 1
12 11 11 10 10 10 9 9 9 9 9 9 9 9 9 8 8 7 7 7 7 7 7 7 6 6 6 5 5 4 4 4 4 3 3 3 2 2 1 1 1 1 1
12 11 11 10 10 10 10 9 9 9 9 9 9 9 8 8 8 8 7 7 6 7 7 7 6 6 5 5 4 4 4 4 3 3 3 3 2 2 1 1 0 0 0
12 12 11 11 10 10 10 9 9 9 9 9 9 9 8 8 8 8 7 6 6 6 6 6 6 6 5 4 4 4 3 3 3 2 2 2 2 1 1 0 0 -0 -1
13 13 12 11 10 10 10 9 9 9 9 9 8 8 8 8 8 7 7 6 6 5 6 5 5 5 4 4 3 3 3 3 2 2 2 1 1 1 0 -0 -1 -1 -1
12 12 12 11 10 10 10 9 9 9 8 8 8 8 8 8 7 7 7 6 5 5 5 5 4 4 4 3 3 3 2 2 2 1 1 1 0 -0 -1 -1 -1 -2 -2
12 12 11 11 10 10 10 9 9 9 8 8 8 8 8 7 7 7 6 6 5 5 4 4 4 3 3 3 2 2 1 1 1 1 0 -0 -1 -1 -1 -2 -2 -2 -3
11 11 11 11 10 10 10 9 9 9 8 8 8 8 7 7 7 7 6 6 5 5 4 4 3 3 2 2 1 1 1 0 -0 -0 -1 -1 -1 -2 -2 -2 -3 -3 -3
11 11 11 10 10 10 10 9 9 9 8 8 8 7 7 7 6 6 6 5 5 4 3 3 3 2 2 1 1 0 -0 -0 -1 -1 -1 -2 -2 -2 -2 -3 -3 -3 -4
10 10 10 10 10 10 9 9 9 8 8 8 8 7 7 7 6 6 5 5 4 4 3 2 2 2 1 0 -0 -0 -1 -1 -1 -2 -2 -2 -2 -3 -3 -3 -4 -4 -4
10 10 10 9 9 9 9 9 9 8 8 8 7 7 6 6 6 5 5 4 4 3 2 2 1 1 0 -0 -1 -1 -2 -2 -2 -2 -2 -3 -3 -3 -3 -4 -4 -4 -5
10 10 9 9 9 9 9 9 8 8 8 7 7 6 6 6 5 5 4 4 3 2 2 1 0 -0 -1 -1 -2 -2 -3 -3 -3 -3 -3 -4 -4 -4 -4 -5 -5 -5 -5
9 9 9 9 9 9 8 8 8 7 7 7 6 6 6 5 5 4 4 3 3 2 1 0 -0 -1 -1 -2 -2 -3 -3 -4 -4 -4 -5 -5 -5 -5 -5 -6 -6 -6 -6
9 9 9 8 8 8 8 8 7 7 7 6 6 6 5 5 4 4 3 3 2 1 0 -0 -1 -1 -2 -2 -3 -4 -4 -4 -5 -5 -6 -5 -6 -6 -6 -6 -6 -6 -7
9 8 8 8 8 8 8 7 7 7 6 6 6 5 5 4 3 3 2 2 1 1 0 -1 -1 -2 -2 -3 -3 -4 -4 -5 -5 -6 -6 -6 -6 -7 -6 -6 -7 -7 -7
8 8 8 8 8 7 7 7 7 6 6 5 5 5 4 3 3 2 1 1 1 0 -1 -1 -2 -2 -3 -3 -4 -5 -5 -6 -6 -6 -7 -7 -7 -7 -7 -7 -7 -7 -8
8 8 7 7 7 7 7 6 6 6 5 5 4 4 3 3 2 1 1 0 -0 -1 -1 -2 -2 -3 -3 -4 -4 -5 -6 -7 -7 -7 -7 -8 -8 -8 -8 -8 -8 -8 -8
Wind_Speed
9 9 8 7 7 6 6 4 4 4 3 2 2 1 2 2 2 2 4 7 7 7 7 7 8 8 9 10 10 10 11 11 11 11 12 12 13 13 13 14 14 14 15
10 9 8 7 7 6 5 5 4 3 2 1 1 1 1 2 2 2 3 5 8 8 7 7 7 8 8 9 10 10 10 11 11 11 11 12 13 13 13 14 14 14 15
12 10 8 8 7 7 7 5 4 3 2 1 1 1 1 1 1 2 2 3 4 7 7 7 7 8 8 9 9 10 10 10 11 11 11 12 12 13 14 14 14 15 15
14 11 8 8 9 8 7 5 4 3 2 2 1 1 1 1 1 2 3 3 3 3 5 7 7 8 8 9 9 9 10 10 10 11 11 12 13 13 14 14 15 15 16
16 13 9 9 10 8 7 5 5 4 3 2 1 1 1 1 2 2 3 3 2 2 2 5 5 7 7 8 9 9 10 10 11 11 12 13 13 14 15 15 15 16 16
17 14 10 11 11 8 7 7 6 4 3 2 2 1 1 2 2 2 3 3 3 2 1 1 2 3 5 7 8 9 9 10 11 11 12 13 14 15 15 16 16 16 17
18 15 11 11 11 9 9 8 6 6 4 3 2 2 2 3 3 3 3 3 3 2 1 1 2 3 3 4 6 8 10 11 12 12 13 14 15 15 16 16 17 17 18
18 16 14 11 11 10 10 10 8 5 4 4 3 2 3 4 4 4 4 4 4 3 3 3 3 3 4 4 4 6 9 11 12 13 14 15 16 17 17 18 18 18 19
20 18 17 14 12 12 10 11 10 9 6 5 4 4 3 3 2 4 5 5 5 4 4 4 4 4 4 4 4 5 8 11 13 14 15 16 17 18 18 19 19 20 20
20 19 18 16 14 12 12 11 11 9 7 6 4 4 3 2 3 2 4 5 5 6 5 4 5 4 4 3 4 5 8 11 13 14 16 17 18 19 20 20 20 21 21
18 19 18 16 14 12 13 12 11 10 8 7 5 4 4 3 5 4 4 4 4 5 5 5 5 5 5 5 5 5 8 11 13 15 16 18 19 20 20 21 21 22 22
15 18 18 16 15 13 14 13 12 12 10 9 7 6 5 4 5 5 5 5 5 4 4 5 5 5 5 5 6 6 9 11 13 15 17 18 19 20 21 22 22 23 23
14 18 17 16 15 14 13 12 12 12 12 10 9 7 6 6 4 4 5 5 5 4 4 5 5 6 6 7 7 7 10 12 14 16 17 19 19 20 21 22 23 24 24
16 17 18 17 16 15 13 12 11 11 10 10 10 8 6 5 5 5 4 4 4 5 5 6 4 6 7 7 7 9 11 12 15 17 18 19 20 21 22 22 23 24 24
13 17 17 17 16 15 14 13 10 11 10 10 9 9 7 5 5 5 5 5 4 5 6 5 4 5 6 7 8 11 12 13 16 18 19 20 20 21 22 23 23 23 24
15 16 16 16 15 15 14 13 11 10 11 9 7 9 8 6 5 5 5 5 5 6 6 5 5 6 7 8 10 12 13 15 17 18 19 20 20 21 22 22 23 23 24
15 16 16 16 16 15 14 13 12 12 12 10 9 9 9 8 6 5 5 5 5 6 8 7 6 7 9 10 9 11 12 13 14 16 18 19 20 21 22 23 23 23 23
15 15 15 15 15 14 14 15 14 13 12 12 11 10 9 7 8 6 6 7 6 7 7 9 8 7 9 9 10 11 11 12 14 16 18 19 20 21 22 22 23 22 22
14 14 14 14 14 14 14 14 13 13 13 12 11 11 10 9 9 7 7 6 6 6 6 7 8 7 7 8 9 10 11 11 13 14 16 17 19 21 22 22 22 22 21
14 14 14 13 13 13 13 12 12 12 11 10 10 10 9 10 9 8 7 7 6 6 6 7 8 8 8 8 8 9 10 9 10 12 13 15 18 20 20 20 20 20 20
13 13 13 12 12 11 11 12 11 11 10 9 8 8 8 8 8 7 6 6 6 5 5 6 7 8 8 8 8 8 10 11 11 9 9 11 13 14 15 16 17 18 19
13 12 12 12 12 9 12 14 12 10 10 9 9 8 7 8 8 9 9 8 7 6 6 6 7 8 10 9 8 8 9 10 10 7 10 12 12 12 12 13 16 19 19
13 12 12 12 11 11 14 15 13 10 9 9 8 7 6 6 7 6 8 9 9 9 8 7 8 9 9 9 9 10 10 11 12 11 11 12 11 12 11 14 17 17 17
12 12 11 11 10 10 13 14 14 10 8 7 7 7 7 6 6 6 6 6 6 7 7 7 8 9 9 9 9 9 11 11 11 10 10 10 11 11 12 13 14 15 17
11 10 10 11 10 10 13 14 13 8 6 7 6 6 6 6 7 7 5 5 6 6 6 9 10 11 11 11 10 7 7 8 10 10 8 7 10 12 11 10 11 14 16
11 10 9 9 9 9 12 14 13 7 6 6 5 5 6 6 7 8 6 5 6 6 5 5 7 8 9 9 9 7 7 8 9 8 6 6 9 9 8 7 9 12 13
Wind_Direction
180 178 178 175 176 170 172 173 168 149 138 113 84 65 64 59 61 73 83 60 49 49 48 43 38 34 31 28 23 18 13 10 7 4 2 0 358 356 353 350 349 347 345
184 184 182 182 181 180 178 180 172 166 150 138 106 82 73 74 80 97 94 89 69 57 49 42 36 30 26 23 18 13 8 4 1 359 358 357 354 351 348 346 345 343 342
189 188 188 186 184 181 181 181 173 174 156 162 153 109 96 80 105 116 111 103 95 74 58 46 36 30 22 16 12 9 5 360 356 355 353 351 349 346 343 342 341 339 338
193 192 192 191 185 183 186 186 188 185 183 190 170 139 143 133 137 124 133 126 108 95 77 55 39 30 20 12 7 4 360 356 354 351 350 347 345 342 340 339 338 337 334
197 197 197 192 187 189 192 189 195 198 191 182 166 155 165 166 156 167 154 141 126 114 86 71 52 34 18 8 2 357 353 351 349 347 345 342 339 337 335 333 333 332 330
199 200 199 195 190 192 195 194 190 188 186 172 160 169 178 186 189 185 177 169 162 157 126 28 9 31 22 7 0 352 348 345 343 342 339 336 334 332 329 328 328 327 325
199 200 199 196 194 199 200 196 187 182 181 176 190 197 188 193 198 193 198 197 186 189 217 291 329 331 342 358 360 351 346 341 338 335 333 330 328 326 325 324 323 322 321
202 201 201 198 197 200 200 194 190 193 181 193 215 225 217 197 202 206 206 213 216 213 233 259 291 308 318 322 351 348 343 336 332 330 328 326 325 322 321 321 320 318 318
203 202 204 203 200 200 200 197 195 197 194 193 217 232 243 242 188 193 210 218 223 232 240 251 266 280 297 304 311 335 337 332 328 326 325 324 322 320 318 318 317 316 315
204 204 204 205 202 202 203 200 199 202 197 193 197 228 252 274 244 227 203 214 226 240 246 249 256 259 269 281 295 316 326 324 323 323 322 321 319 317 316 315 315 314 313
204 204 203 203 203 203 205 199 195 199 203 202 192 189 206 222 240 248 251 230 230 235 244 254 253 250 252 267 279 305 314 315 317 318 318 317 316 315 314 313 312 312 310
202 203 203 203 203 203 203 199 196 200 203 203 198 192 195 203 213 223 248 257 258 249 250 250 248 240 248 262 272 291 299 305 309 311 313 314 313 312 311 310 309 308 307
199 202 200 202 203 202 199 195 195 199 202 201 201 203 210 219 216 221 242 259 265 266 256 245 236 238 248 258 269 282 288 295 302 306 308 310 309 308 308 307 307 305 304
200 199 198 201 202 199 195 194 194 197 198 201 205 203 204 206 204 211 225 239 261 262 253 255 236 239 247 259 275 282 286 290 298 302 304 305 306 305 305 305 304 303 303
198 196 196 198 199 196 194 191 196 194 194 199 200 199 201 199 202 209 215 220 237 265 272 265 255 244 253 265 276 283 287 291 296 297 299 301 303 303 303 304 303 303 302
195 193 194 196 195 194 192 191 193 192 192 194 191 195 199 198 197 199 208 219 231 248 267 273 268 268 269 275 281 285 288 292 289 291 295 298 301 302 303 304 303 302 302
193 193 192 193 193 192 191 191 192 187 193 192 191 198 201 195 196 199 205 215 226 236 258 273 273 276 277 280 283 286 290 291 292 292 296 298 300 301 303 303 302 302 303
191 191 189 190 191 191 190 192 191 189 192 193 193 197 199 194 202 203 208 218 227 234 253 274 280 282 281 285 288 290 291 291 291 294 296 297 298 300 302 303 303 303 304
188 186 186 188 189 189 190 193 192 191 195 196 194 197 198 196 206 208 213 222 231 240 249 267 281 287 286 287 292 291 291 291 293 295 295 295 298 301 302 302 303 305 305
183 182 183 186 186 186 188 189 190 190 192 194 195 197 197 199 208 210 215 224 230 239 251 262 276 285 287 293 294 296 298 297 299 299 295 297 299 300 299 300 303 305 307
177 177 177 179 181 181 184 183 184 185 187 189 190 195 199 201 207 208 213 219 221 235 249 261 273 283 286 293 293 297 297 303 302 299 302 303 304 302 302 302 303 306 306
170 170 174 175 177 180 177 179 180 183 185 188 189 194 197 200 206 214 221 224 225 236 246 259 270 276 284 291 296 296 298 303 305 307 306 304 304 301 302 303 308 309 307
167 169 172 174 178 177 173 177 176 180 185 190 191 190 192 202 205 216 225 230 235 243 250 260 269 275 287 293 296 294 293 294 295 303 307 300 302 301 304 304 306 308 309
167 168 171 173 173 170 169 174 174 182 184 188 190 190 193 199 202 212 223 232 242 247 251 259 268 278 285 293 294 292 295 295 295 295 298 297 304 307 309 306 304 307 311
164 165 166 168 169 168 168 171 170 177 181 186 188 191 196 200 198 202 216 231 249 261 259 263 274 281 287 289 293 295 295 296 300 304 306 297 305 311 307 302 304 309 309
158 155 156 163 166 165 167 170 171 173 179 181 184 190 196 204 197 197 217 231 249 267 271 272 274 277 280 282 284 284 290 293 300 305 313 308 307 318 309 304 312 313 310
Height
1541 1543 1545 1546 1547 1548 1549 1550 1550 1550 1550 1550 1549 1549 1549 1548 1548 1547 1546 1545 1545 1544 1544 1543 1542 1541 1539 1538 1536 1534 1532 1531 1529 1527 1525 1524 1522 1520 1518 1516 1514 1513 1511
1540 1541 1543 1544 1546 1547 1548 1549 1550 1550 1550 1549 1549 1549 1548 1548 1547 1547 1546 1545 1544 1544 1543 1542 1541 1540 1539 1537 1535 1533 1532 1530 1528 1526 1525 1523 1521 1519 1517 1515 1513 1511 1509
1538 1540 1542 1543 1545 1546 1547 1548 1548 1549 1549 1549 1548 1548 1547 1547 1546 1546 1545 1545 1544 1543 1542 1541 1540 1539 1538 1536 1534 1533 1531 1529 1527 1525 1523 1521 1519 1517 1516 1514 1512 1510 1508
1536 1538 1540 1542 1543 1544 1545 1546 1547 1548 1548 1548 1548 1547 1546 1546 1545 1545 1544 1544 1543 1543 1541 1540 1539 1538 1537 1535 1533 1532 1530 1528 1526 1524 1522 1520 1518 1516 1514 1512 1510 1508 1506
1534 1536 1538 1540 1541 1542 1544 1545 1546 1546 1547 1547 1546 1546 1545 1545 1544 1544 1544 1543 1542 1542 1541 1539 1538 1537 1535 1534 1532 1530 1528 1526 1524 1522 1520 1518 1516 1514 1512 1510 1508 1506 1504
1531 1533 1535 1537 1539 1540 1541 1543 1544 1544 1545 1545 1545 1545 1544 1544 1543 1543 1542 1542 1541 1540 1539 1538 1537 1535 1534 1532 1530 1528 1526 1525 1522 1520 1518 1516 1514 1512 1509 1507 1505 1503 1501
1527 1529 1532 1534 1536 1537 1539 1541 1542 1542 1543 1543 1544 1543 1543 1542 1541 1541 1541 1540 1539 1539 1538 1537 1535 1534 1532 1530 1528 1526 1524 1522 1520 1518 1515 1513 1511 1509 1507 1504 1502 1500 1497
1522 1525 1528 1530 1532 1534 1536 1538 1539 1540 1541 1541 1542 1543 1543 1542 1539 1539 1539 1538 1538 1537 1536 1535 1533 1532 1530 1528 1526 1524 1522 1519 1517 1515 1512 1510 1508 1505 1503 1501 1498 1496 1493
1517 1520 1523 1526 1528 1530 1532 1534 1536 1537 1538 1539 1540 1541 1541 1541 1539 1537 1536 1536 1535 1535 1534 1532 1531 1529 1527 1525 1523 1521 1518 1516 1514 1511 1509 1506 1504 1501 1499 1497 1494 1491 1489
1512 1515 1518 1521 1524 1526 1528 1530 1532 1534 1535 1535 1536 1537 1538 1537 1538 1537 1535 1534 1533 1532 1531 1529 1528 1526 1524 1522 1520 1517 1515 1513 1510 1507 1505 1502 1499 1497 1494 1492 1489 1486 1483
1506 1509 1513 1516 1519 1521 1524 1526 1528 1530 1531 1532 1533 1533 1534 1534 1534 1534 1534 1532 1530 1529 1528 1526 1525 1523 1521 1519 1516 1514 1511 1509 1506 1503 1500 1497 1494 1492 1489 1486 1483 1480 1477
1499 1503 1507 1510 1513 1516 1519 1521 1523 1525 1527 1528 1529 1530 1530 1531 1531 1530 1530 1529 1528 1526 1524 1523 1521 1519 1517 1515 1512 1510 1507 1504 1501 1498 1495 1492 1489 1486 1483 1480 1477 1474 1471
1491 1495 1499 1503 1507 1510 1514 1516 1519 1521 1522 1524 1525 1526 1527 1527 1527 1527 1527 1525 1524 1522 1520 1519 1517 1516 1513 1511 1508 1506 1503 1500 1497 1493 1490 1487 1483 1480 1477 1473 1470 1467 1464
1484 1489 1493 1497 1501 1505 1508 1511 1514 1516 1518 1519 1520 1521 1522 1523 1523 1523 1523 1522 1520 1519 1517 1515 1513 1511 1509 1507 1504 1501 1498 1495 1491 1488 1485 1481 1477 1474 1470 1467 1463 1460 1457
1479 1483 1487 1491 1495 1499 1503 1506 1508 1511 1513 1514 1516 1517 1518 1518 1519 1519 1519 1518 1518 1515 1513 1511 1509 1507 1505 1502 1499 1496 1493 1489 1486 1483 1479 1475 1471 1467 1464 1460 1457 1453 1450
1473 1477 1481 1485 1489 1493 1497 1500 1503 1505 1508 1509 1511 1512 1513 1514 1514 1514 1514 1513 1513 1511 1509 1507 1505 1503 1500 1497 1494 1491 1488 1484 1480 1477 1473 1469 1465 1461 1457 1454 1450 1447 1443
1467 1471 1475 1479 1483 1487 1491 1494 1497 1500 1502 1504 1506 1507 1508 1509 1509 1509 1509 1509 1508 1506 1504 1501 1500 1498 1495 1492 1489 1486 1482 1478 1475 1471 1467 1463 1459 1455 1451 1447 1444 1440 1437
1461 1465 1470 1474 1478 1482 1485 1489 1492 1495 1497 1499 1501 1502 1503 1504 1504 1504 1504 1503 1503 1501 1499 1496 1495 1493 1490 1487 1484 1480 1477 1473 1469 1465 1461 1457 1453 1449 1445 1441 1437 1433 1430
1456 1460 1464 1469 1473 1476 1480 1484 1487 1489 1492 1494 1496 1497 1498 1499 1499 1499 1499 1498 1497 1496 1494 1492 1489 1487 1485 1482 1478 1475 1471 1467 1463 1460 1456 1452 1448 1444 1439 1435 1431 1427 1424
1451 1455 1459 1464 1468 1472 1475 1479 1482 1484 1487 1489 1491 1492 1493 1494 1494 1494 1494 1493 1492 1491 1489 1487 1484 1482 1480 1477 1474 1470 1465 1462 1458 1454 1450 1446 1442 1438 1434 1429 1425 1421 1418
1446 1451 1455 1459 1463 1467 1470 1473 1476 1479 1482 1484 1485 1487 1487 1488 1489 1489 1488 1488 1487 1485 1484 1482 1479 1477 1475 1472 1469 1465 1461 1457 1453 1449 1445 1441 1437 1432 1428 1424 1420 1416 1412
1442 1447 1451 1455 1459 1462 1466 1469 1472 1474 1477 1478 1480 1481 1482 1483 1483 1483 1483 1483 1482 1481 1479 1477 1475 1472 1470 1467 1464 1460 1457 1452 1447 1445 1440 1435 1432 1427 1423 1419 1415 1411 1407
1438 1442 1447 1451 1454 1458 1462 1465 1467 1470 1472 1473 1475 1476 1477 1477 1478 1478 1477 1477 1476 1475 1474 1473 1470 1468 1465 1463 1459 1456 1452 1448 1444 1440 1435 1429 1427 1422 1419 1414 1410 1406 1403
1434 1438 1443 1447 1451 1454 1457 1460 1463 1465 1467 1468 1470 1471 1471 1472 1472 1473 1472 1471 1471 1470 1469 1467 1465 1463 1461 1458 1455 1452 1447 1443 1439 1436 1432 1426 1422 1418 1414 1410 1406 1402 1398
1431 1435 1439 1443 1447 1450 1453 1456 1459 1460 1462 1463 1465 1465 1466 1467 1467 1468 1467 1466 1466 1465 1463 1462 1460 1458 1455 1453 1450 1446 1442 1438 1434 1431 1428 1423 1418 1413 1409 1406 1402 1398 1394
1427 1432 1436 1440 1443 1446 1449 1452 1454 1456 1457 1459 1460 1461 1461 1462 1462 1462 1462 1462 1461 1460 1458 1456 1454 1452 1450 1447 1444 1442 1438 1435 1431 1427 1423 1420 1415 1411 1405 1401 1399 1395 1391